FW4383 Weather Reports


Display with metric or nautical units.
time (UTC)temp
F
wind
direction
speed
MPH
gust
MPH
rain 1hr
in
rain 24hr
in
rain mn
in
humidity
%
barometer
mb
20260831213035 85 94 3.0 9.0 0.00 0.00 0.00 31 1012.1
20260831210034 83 82 6.0 11.0 0.00 0.00 0.00 33 1012.5
20260831204642 82 83 5.0 11.0 0.00 0.00 0.00 36 1012.6
20260831201534 81 55 4.0 11.0 0.00 0.00 0.00 38 1013.4
20260831194606 79 52 5.0 11.0 0.00 0.00 0.00 40 1013.9
20260831193036 78 46 4.0 13.0 0.00 0.00 0.00 41 1014.1
20260831191536 78 52 5.0 12.0 0.00 0.00 0.00 41 1014.5
20260831190033 77 53 4.0 12.0 0.00 0.00 0.00 45 1014.8
20260831181535 74 35 4.0 9.0 0.00 0.00 0.00 52 1015.6
20260831180035 71 31 3.0 8.0 0.00 0.00 0.00 58 1015.8
20260831174535 70 347 3.0 7.0 0.00 0.00 0.00 61 1015.9
20260831173036 68 346 2.0 6.0 0.00 0.00 0.00 63 1016.1
20260831171537 67 349 1.0 6.0 0.00 0.00 0.00 64 1016.3
20260831170037 66 78 0.0 4.0 0.00 0.00 0.00 65 1016.4
20260831164536 64 14 0.0 2.0 0.00 0.00 0.00 66 1016.7
20260831160106 60 157 0.0 2.0 0.00 0.00 0.00 75 1017.2
20260831154533 57 157 1.0 2.0 0.00 0.00 0.00 79 1017.2
20260831153036 55 149 2.0 4.0 0.00 0.00 0.00 84 1017.3
20260831144535 47 125 1.0 4.0 0.00 0.00 0.00 93 1017.1
20260831141537 45 157 0.0 0.0 0.00 0.00 0.00 92 1017.0
20260831140032 45 157 0.0 0.0 0.00 0.00 0.00 92 1016.9
20260831133038 44 157 1.0 2.0 0.00 0.00 0.00 92 1016.8
20260831131533 44 157 1.0 2.0 0.00 0.00 0.00 91 1016.8
20260831130031 44 157 0.0 1.0 0.00 0.00 0.00 91 1016.8
20260831124532 45 157 0.0 0.0 0.00 0.00 0.00 91 1016.8
20260831123033 46 157 0.0 0.0 0.00 0.00 0.00 91 1016.7
20260831121533 46 157 0.0 0.0 0.00 0.00 0.00 91 1016.7
20260831120035 47 157 0.0 0.0 0.00 0.00 0.00 91 1016.8
20260831114536 46 157 2.0 4.0 0.00 0.00 0.00 91 1016.8
20260831113034 46 157 0.0 2.0 0.00 0.00 0.00 91 1016.8
20260831111535 46 157 0.0 3.0 0.00 0.00 0.00 90 1016.8
20260831110035 46 157 1.0 4.0 0.00 0.00 0.00 89 1016.8
20260831103029 47 157 0.0 1.0 0.00 0.00 0.00 89 1016.8
20260831101534 47 157 0.0 0.0 0.00 0.00 0.00 89 1016.9
20260831100033 47 157 0.0 2.0 0.00 0.00 0.00 88 1017.0
20260831094537 48 157 0.0 2.0 0.00 0.00 0.00 87 1017.2
20260831093035 48 157 0.0 0.0 0.00 0.00 0.00 86 1017.2
20260831091534 48 157 0.0 0.0 0.00 0.00 0.00 85 1017.3
20260831084535 50 157 0.0 2.0 0.00 0.00 0.00 84 1017.4
20260831081532 51 157 0.0 0.0 0.00 0.00 0.00 83 1017.6
20260831073035 52 180 0.0 2.0 0.00 0.00 0.00 83 1017.7
20260831071610 52 180 0.0 2.0 0.00 0.00 0.00 82 1017.7
20260831070032 53 180 0.0 0.0 0.00 0.00 0.00 81 1017.7
20260831064644 53 180 0.0 1.0 0.00 0.00 0.00 79 1017.7
20260831063036 54 180 0.0 2.0 0.00 0.00 0.00 77 1017.8
20260831061535 56 180 2.0 3.0 0.00 0.00 0.00 75 1017.9
20260831060034 56 180 0.0 3.0 0.00 0.00 0.00 74 1017.9
20260831054531 56 218 1.0 4.0 0.00 0.00 0.00 74 1017.8
20260831053034 56 236 2.0 4.0 0.00 0.00 0.00 75 1018.0
20260831050148 58 236 0.0 3.0 0.00 0.00 0.00 70 1018.0
20260831044531 60 270 0.0 0.0 0.00 0.00 0.00 67 1018.0
20260831043035 63 245 0.0 3.0 0.00 0.00 0.00 62 1017.9
20260831041542 66 270 0.0 2.0 0.00 0.00 0.00 57 1017.9
20260831040034 65 261 3.0 8.0 0.00 0.00 0.00 59 1017.9
20260831034529 65 225 0.0 6.0 0.00 0.00 0.00 57 1017.7
20260831033035 66 217 1.0 5.0 0.00 0.00 0.00 55 1017.5
20260831030030 69 252 4.0 11.0 0.00 0.00 0.00 50 1017.3
20260831024535 70 256 4.0 10.0 0.00 0.00 0.00 47 1017.2
20260831021531 71 263 6.0 14.0 0.00 0.00 0.00 45 1017.3
20260831013034 73 271 7.0 15.0 0.00 0.00 0.00 41 1017.3
20260831011535 74 271 7.0 17.0 0.00 0.00 0.00 40 1017.3
20260831004607 75 268 8.0 17.0 0.00 0.00 0.00 38 1017.5
20260831003035 75 264 8.0 17.0 0.00 0.00 0.00 38 1017.5
20260831001534 75 264 9.0 16.0 0.00 0.00 0.00 37 1017.5
20260831000034 76 263 7.0 15.0 0.00 0.00 0.00 37 1017.6
20260830234536 75 267 8.0 18.0 0.00 0.00 0.00 38 1017.7
20260830233035 75 269 9.0 17.0 0.00 0.00 0.00 39 1017.9
20260830231537 75 272 9.0 18.0 0.00 0.00 0.00 38 1018.1
20260830230155 74 280 9.0 19.0 0.00 0.00 0.00 40 1018.5
20260830223136 73 280 10.0 20.0 0.00 0.00 0.00 40 1018.7
20260830221534 73 274 10.0 22.0 0.00 0.00 0.00 40 1018.9
20260830220032 72 276 10.0 22.0 0.00 0.00 0.00 42 1019.1
20260830214531 72 267 9.0 20.0 0.00 0.00 0.00 43 1019.5